Location: SE Lincoln, NE
(40.7805°N, 96.6275°W)
Time: 03:13:37
(UTC-05:00)

Ariane Rocket - Pass Details

Date: 15 May 2021
Orbit: 760 x 769 km, 98.7° (Epoch: 23 June)

Event Time Altitude Azimuth Distance (km) Brightness Sun altitude
Exits shadow 21:42:21 - 168° (SSE) 2,562 5.3 -11.2°
Reaches altitude 10° 21:43:03 10° 169° (S) 2,287 5.0 -11.3°
Maximum altitude 21:48:05 81° 257° (WSW) 778 3.1 -12.1°
Drops below altitude 10° 21:53:11 10° 344° (NNW) 2,308 6.4 -12.8°
Sets 21:55:30 0° 346° (NNW) 3,240 7.2 -13.2°
